Miscellaneous Local Product
Issued by NWS Hastings, NE

Current Version | Previous Version | Text Only | Print | Product List | Glossary On
Versions: 1 2 3 4 5 6 7 8 9 10 11 12 13 14 15 16 17 18 19 20 21 22 23 24 25 26 27 28 29 30 31 32 33 34 35 36 37 38 39 40 41 42 43 44 45 46 47 48 49 50
000
AXUS43 KGID 010202
MISGRI

GID CWA HOURLY WEATHER ROUNDUP
NATIONAL WEATHER SERVICE HASTINGS NE
900 PM CDT TUE JUN 30 2015

NOTE: "FAIR" INDICATES FEW OR NO CLOUDS BELOW 12,000 FEET WITH NO
SIGNIFICANT WEATHER AND/OR OBSTRUCTIONS TO VISIBILITY.

...SOUTH CENTRAL NEBRASKA...

CITY           SKY/WX    TMP DP  RH WIND       PRES   REMARKS
GRAND ISLAND   CLOUDY    77  65  66 E13       29.86R
HASTINGS       CLOUDY    80  69  69 SE15G22   29.83S
KEARNEY        CLOUDY    82  66  57 E12       29.83R
ORD            CLOUDY    74  62  66 E10       29.85R

...NEBRASKA PANHANDLE...

CITY           SKY/WX    TMP DP  RH WIND       PRES   REMARKS
CHADRON        MOCLDY    80  70  71 NE8       29.89R
ALLIANCE       PTCLDY    81  63  54 N10G21    29.92R
SCOTTSBLUFF    PTCLDY    85  60  42 N9        29.93R
SIDNEY         PTCLDY    78  63  59 W5        29.97R

...WESTERN AND NORTH CENTRAL NEBRASKA...

CITY           SKY/WX    TMP DP  RH WIND       PRES   REMARKS
VALENTINE      CLOUDY    74  65  73 E12       29.87S
BROKEN BOW     MOCLDY    80  71  74 E9        29.85R
IMPERIAL       PTCLDY    86  65  49 S3        29.87R
NORTH PLATTE   PTCLDY    82  70  66 E5        29.83S
MCCOOK         PTCLDY    91  58  32 E6        29.82S HX  90

...EASTERN NEBRASKA...

CITY           SKY/WX    TMP DP  RH WIND       PRES   REMARKS
NORFOLK        CLOUDY    70  64  81 E7        29.89F
SO SIOUX CITY  LGT RAIN  71  66  84 E7        29.89S
TEKAMAH        CLOUDY    72  69  90 S5        29.88S
COLUMBUS       CLOUDY   N/A N/A N/A E9        29.87F
OMAHA EPPLEY   CLOUDY    73  67  81 CALM      29.89S
OFFUTT AFB     LGT RAIN  71  66  83 E3        29.88S
LINCOLN        LGT RAIN  76  65  68 NE7       29.89R
FALLS CITY     CLOUDY    76  67  73 SE7       29.86S

...NORTHERN KANSAS...

CITY           SKY/WX    TMP DP  RH WIND       PRES   REMARKS
GOODLAND       PTCLDY    84  51  31 S7        29.92S
HILL CITY      CLEAR     93  48  21 SW6       29.82S
NORTON         CLEAR     88  48  25 CALM      29.81S
PHILLIPSBURG   CLEAR     91  52  25 E7        29.80S
SMITH CENTER   CLEAR     88  57  35 NE9       29.80F
HAYS           PTCLDY    93  52  24 S10       29.83S HX  90
RUSSELL        MOCLDY    92  53  26 S12       29.80S
CONCORDIA      MOCLDY    83  67  58 SE6       29.80S
SALINA         MOCLDY    87  60  40 S6        29.80S
TOPEKA         MOCLDY    82  68  62 E7        29.86R



USA.gov is the U.S. government's official web portal to all federal, state and local government web resources and services.